Home > Time Zones > World Clock > Weather > Russia > Perm > Past weeks

Flag for Russia Weather past 2 weeks in Perm, Russia

Now
0 °F

Ice fog.


Feels Like: 0 °F
Forecast: 12 / 25 °F
Wind: 1 mph from Southwest

Location: Perm'/Bolshoe Savino

Current Time: Oct 21, 2014 at 11:25:44 AM

Latest Report: Oct 21, 2014 at 11:00 AM


Visibility: 0 mi

Pressure: 29.80 "Hg

Humidity: 92%

Dew point: -2 °F

Location of PermLocation

Historic Weather in Perm — Graph

°F

Perm temperature yesterday

Maximum temperature yesterday: 21 °F (at 12:00 AM)
Minimum temperature yesterday: 9 °F (at 11:30 PM)
Average temperature yesterday: 18 °F

Past Weeks' High & Low Weather Summary

 TemperatureHumidityPressure
High45 °F (Oct 8, 2:00 PM)100% (Oct 7, 7:00 AM)30.36 "Hg (Oct 7, 7:00 AM)
Low-6 °F (Oct 21, 7:30 AM)44% (Oct 17, 2:30 PM)29.56 "Hg (Oct 18, 1:30 PM)
Average31 °F88%29.98 "Hg
* Reported Oct 6 10:00 AM — Oct 21 10:30 AM, Perm, Weather by CustomWeather, © 2014

Note: Actual official high and low records may vary slightly from our data, if they occured in-between our weather recording intervals... More about our weather records

Advertising

Perm weather history for previous 24 hours

 ConditionsComfort  
Time TempWeatherWind HumidityBarometerVisibility
10:30 AM
Oct 21
0 °FIce fog.3 mph84%29.80 "Hg0 mi
10:00 AM-2 °FIce fog.1 mph92%29.80 "Hg0 mi
9:30 AM-2 °FIce fog.1 mph84%29.80 "Hg1 mi
9:00 AM-4 °FMostly cloudy.3 mph84%29.80 "Hg6 mi
8:30 AM-4 °FPartly cloudy.1 mph84%29.77 "Hg5 mi
8:00 AM-4 °FMostly cloudy.1 mph92%29.77 "HgN/A
7:30 AM-6 °FLight snow. Mostly cloudy.3 mph92%29.77 "HgN/A
7:00 AM-2 °FLight snow. Mostly cloudy.3 mph84%29.77 "Hg3 mi
6:30 AM0 °FLight snow. Mostly cloudy.1 mph92%29.77 "Hg2 mi
6:00 AM5 °FLight snow. Mostly cloudy.3 mph85%29.77 "Hg2 mi
5:30 AM7 °FLight snow. Mostly cloudy.1 mph92%29.77 "Hg2 mi
5:00 AM7 °FLight snow. Mostly cloudy.1 mph92%29.77 "Hg1 mi
4:30 AM7 °FLight snow. Mostly cloudy.3 mph92%29.77 "Hg2 mi
4:00 AM7 °FLight snow. Mostly cloudy.6 mph92%29.77 "Hg1 mi
3:30 AM7 °FLight snow. Mostly cloudy.6 mph92%29.77 "Hg1 mi
3:00 AM7 °FLight snow. Overcast.6 mph92%29.77 "HgN/A
2:30 AM7 °FPassing clouds.8 mph92%29.77 "HgN/A
2:00 AM3 °FClear.6 mph92%29.77 "Hg10 mi
1:30 AM5 °FClear.6 mph92%29.77 "Hg10 mi
1:00 AM9 °FPassing clouds.6 mph92%29.77 "HgN/A
12:30 AM9 °FPassing clouds.8 mph92%29.77 "HgN/A
12:00 AM7 °FPassing clouds.8 mph100%29.77 "HgN/A
11:30 PM
Oct 20
9 °FPassing clouds.8 mph92%29.74 "HgN/A
11:00 PM10 °FPassing clouds.3 mph92%29.74 "HgN/A
10:30 PM12 °FPassing clouds.3 mph92%29.74 "HgN/A
10:00 PM12 °FPassing clouds.3 mph92%29.74 "HgN/A
9:30 PM14 °FPassing clouds.3 mph85%29.74 "HgN/A
9:00 PM14 °FPassing clouds.3 mph85%29.74 "HgN/A
8:30 PM16 °FLight snow. Mostly cloudy.6 mph86%29.74 "Hg6 mi
8:00 PM16 °FLight snow. Mostly cloudy.6 mph93%29.74 "Hg4 mi
7:30 PM18 °FLight snow. Mostly cloudy.6 mph93%29.74 "Hg3 mi
7:00 PM18 °FHeavy snow. Mostly cloudy.3 mph93%29.74 "Hg1 mi
6:30 PM18 °FSnow. Mostly cloudy.6 mph93%29.74 "Hg1 mi
6:00 PM19 °FLight snow. Mostly cloudy.3 mph79%29.71 "Hg3 mi
5:30 PM19 °FLight snow. Mostly cloudy.6 mph79%29.71 "Hg2 mi
5:00 PM19 °FLight snow. Mostly cloudy.8 mph73%29.71 "HgN/A
4:30 PM19 °FLight snow. Mostly cloudy.10 mph73%29.71 "Hg6 mi
4:00 PM19 °FLight snow. Mostly cloudy.10 mph79%29.71 "Hg4 mi
3:30 PM19 °FLight snow. Mostly cloudy.10 mph73%29.71 "Hg5 mi
3:00 PM19 °FLight snow. Mostly cloudy.10 mph79%29.71 "Hg6 mi
2:30 PM19 °FLight snow. Mostly cloudy.8 mph73%29.71 "HgN/A
2:00 PM19 °FPartly sunny.8 mph79%29.71 "HgN/A
1:30 PM18 °FBroken clouds.8 mph86%29.71 "HgN/A
1:00 PM19 °FBroken clouds.8 mph86%29.71 "HgN/A
12:30 PM19 °FBroken clouds.8 mph86%29.71 "HgN/A
12:00 PM18 °FPartly sunny.8 mph93%29.71 "HgN/A
11:30 AM18 °FLight snow. Mostly cloudy.6 mph93%29.71 "Hg3 mi
11:00 AM18 °FLight snow. Mostly cloudy.8 mph93%29.71 "Hg3 mi
Weather by CustomWeather, © 2014

See weather overviewHow to use our weather pages